Year,Month,Day,Hour,Minute,Value (Times are PST for temperature in C)
2015,04,27,00,00,10.20
2015,04,27,00,01,10.20
2015,04,27,00,02,10.20
2015,04,27,00,03,10.20
2015,04,27,00,04,10.20
2015,04,27,00,05,10.20
2015,04,27,00,06,10.20
2015,04,27,00,07,10.20
2015,04,27,00,08,10.20
2015,04,27,00,09,10.10
2015,04,27,00,10,10.10
2015,04,27,00,11,10.10
2015,04,27,00,12,10.10
2015,04,27,00,13,10.10
2015,04,27,00,14,10.10
2015,04,27,00,15,10.10
2015,04,27,00,16,10.10
2015,04,27,00,17,10.10
2015,04,27,00,18,10.10
2015,04,27,00,19,10.10
2015,04,27,00,20,10.10
2015,04,27,00,21,10.10
2015,04,27,00,22,10.10
2015,04,27,00,23,10.00
2015,04,27,00,24,10.00
2015,04,27,00,25,10.00
2015,04,27,00,26,10.00
2015,04,27,00,27,10.00
2015,04,27,00,28,10.00
2015,04,27,00,29,10.00
2015,04,27,00,30,9.90
2015,04,27,00,31,9.90
2015,04,27,00,32,9.90
2015,04,27,00,33,9.90
2015,04,27,00,34,9.90
2015,04,27,00,35,9.90
2015,04,27,00,36,9.90
2015,04,27,00,37,9.90
2015,04,27,00,38,9.90
2015,04,27,00,39,9.90
2015,04,27,00,40,9.90
2015,04,27,00,41,9.90
2015,04,27,00,42,9.90
2015,04,27,00,43,9.80
2015,04,27,00,44,9.80
2015,04,27,00,45,9.90
2015,04,27,00,46,9.80
2015,04,27,00,47,9.80
2015,04,27,00,48,9.80
2015,04,27,00,49,9.80
2015,04,27,00,50,9.80
2015,04,27,00,51,9.80
2015,04,27,00,52,9.80
2015,04,27,00,53,9.80
2015,04,27,00,54,9.80
2015,04,27,00,55,9.80
2015,04,27,00,56,9.80
2015,04,27,00,57,9.80
2015,04,27,00,58,9.80
2015,04,27,00,59,9.80
2015,04,27,01,00,9.80
2015,04,27,01,01,9.80
2015,04,27,01,02,9.80
2015,04,27,01,03,9.80
2015,04,27,01,04,9.80
2015,04,27,01,05,9.80
2015,04,27,01,06,9.80
2015,04,27,01,07,9.80
2015,04,27,01,08,9.80
2015,04,27,01,09,9.80
2015,04,27,01,10,9.80
2015,04,27,01,11,9.80
2015,04,27,01,12,9.80
2015,04,27,01,13,9.80
2015,04,27,01,14,9.80
2015,04,27,01,15,9.80
2015,04,27,01,16,9.80
2015,04,27,01,17,9.80
2015,04,27,01,18,9.80
2015,04,27,01,19,9.80
2015,04,27,01,20,9.80
2015,04,27,01,21,9.80
2015,04,27,01,22,9.80
2015,04,27,01,23,9.80
2015,04,27,01,24,9.80
2015,04,27,01,25,9.80
2015,04,27,01,26,9.80
2015,04,27,01,27,9.80
2015,04,27,01,28,9.80
2015,04,27,01,29,9.80
2015,04,27,01,30,9.80
2015,04,27,01,31,9.80
2015,04,27,01,32,9.80
2015,04,27,01,33,9.80
2015,04,27,01,34,9.80
2015,04,27,01,35,9.80
2015,04,27,01,36,9.80
2015,04,27,01,37,9.80
2015,04,27,01,38,9.80
2015,04,27,01,39,9.80
2015,04,27,01,40,9.80
2015,04,27,01,41,9.80
2015,04,27,01,42,9.80
2015,04,27,01,43,9.80
2015,04,27,01,44,9.80
2015,04,27,01,45,9.80
2015,04,27,01,46,9.80
2015,04,27,01,47,9.80
2015,04,27,01,48,9.80
2015,04,27,01,49,9.80
2015,04,27,01,50,9.80
2015,04,27,01,51,9.80
2015,04,27,01,52,9.80
2015,04,27,01,53,9.80
2015,04,27,01,54,9.80
2015,04,27,01,55,9.80
2015,04,27,01,56,9.80
2015,04,27,01,57,9.80
2015,04,27,01,58,9.80
2015,04,27,01,59,9.80
2015,04,27,02,00,9.80
2015,04,27,02,01,9.80
2015,04,27,02,02,9.80
2015,04,27,02,03,9.80
2015,04,27,02,04,9.80
2015,04,27,02,05,9.80
2015,04,27,02,06,9.80
2015,04,27,02,07,9.80
2015,04,27,02,08,9.80
2015,04,27,02,09,9.80
2015,04,27,02,10,9.80
2015,04,27,02,11,9.80
2015,04,27,02,12,9.80
2015,04,27,02,13,9.80
2015,04,27,02,14,9.80
2015,04,27,02,15,9.80
2015,04,27,02,16,9.80
2015,04,27,02,17,9.80
2015,04,27,02,18,9.80
2015,04,27,02,19,9.80
2015,04,27,02,20,9.80
2015,04,27,02,21,9.80
2015,04,27,02,22,9.80
2015,04,27,02,23,9.80
2015,04,27,02,24,9.80
2015,04,27,02,25,9.80
2015,04,27,02,26,9.80
2015,04,27,02,27,9.80
2015,04,27,02,28,9.80
2015,04,27,02,29,9.80
2015,04,27,02,30,9.80
2015,04,27,02,31,9.80
2015,04,27,02,32,9.80
2015,04,27,02,33,9.80
2015,04,27,02,34,9.80
2015,04,27,02,35,9.80
2015,04,27,02,36,9.80
2015,04,27,02,37,9.80
2015,04,27,02,38,9.80
2015,04,27,02,39,9.80
2015,04,27,02,40,9.80
2015,04,27,02,41,9.80
2015,04,27,02,42,9.80
2015,04,27,02,43,9.80
2015,04,27,02,44,9.80
2015,04,27,02,45,9.80
2015,04,27,02,46,9.80
2015,04,27,02,47,9.80
2015,04,27,02,48,9.80
2015,04,27,02,49,9.80
2015,04,27,02,50,9.80
2015,04,27,02,51,9.80
2015,04,27,02,52,9.80
2015,04,27,02,53,9.80
2015,04,27,02,54,9.80
2015,04,27,02,55,9.80
2015,04,27,02,56,9.80
2015,04,27,02,57,9.80
2015,04,27,02,58,9.80
2015,04,27,02,59,9.80
2015,04,27,03,00,9.80
2015,04,27,03,01,9.80
2015,04,27,03,02,9.80
2015,04,27,03,03,9.80
2015,04,27,03,04,9.80
2015,04,27,03,05,9.80
2015,04,27,03,06,9.80
2015,04,27,03,07,9.80
2015,04,27,03,08,9.80
2015,04,27,03,09,9.80
2015,04,27,03,10,9.80
2015,04,27,03,11,9.80
2015,04,27,03,12,9.80
2015,04,27,03,13,9.80
2015,04,27,03,14,9.80
2015,04,27,03,15,9.80
2015,04,27,03,16,9.80
2015,04,27,03,17,9.80
2015,04,27,03,18,9.80
2015,04,27,03,19,9.80
2015,04,27,03,20,9.80
2015,04,27,03,21,9.80
2015,04,27,03,22,9.80
2015,04,27,03,23,9.80
2015,04,27,03,24,9.80
2015,04,27,03,25,9.80
2015,04,27,03,26,9.80
2015,04,27,03,27,9.80
2015,04,27,03,28,9.80
2015,04,27,03,29,9.80
2015,04,27,03,30,9.80
2015,04,27,03,31,9.80
2015,04,27,03,32,9.80
2015,04,27,03,33,9.80
2015,04,27,03,34,9.80
2015,04,27,03,35,9.80
2015,04,27,03,36,9.80
2015,04,27,03,37,9.80
2015,04,27,03,38,9.80
2015,04,27,03,39,9.80
2015,04,27,03,40,9.80
2015,04,27,03,41,9.80
2015,04,27,03,42,9.80
2015,04,27,03,43,9.80
2015,04,27,03,44,9.80
2015,04,27,03,45,9.80
2015,04,27,03,46,9.80
2015,04,27,03,47,9.80
2015,04,27,03,48,9.70
2015,04,27,03,49,9.70
2015,04,27,03,50,9.70
2015,04,27,03,51,9.70
2015,04,27,03,52,9.70
2015,04,27,03,53,9.70
2015,04,27,03,54,9.80
2015,04,27,03,55,9.80
2015,04,27,03,56,9.80
2015,04,27,03,57,9.70
2015,04,27,03,58,9.70
2015,04,27,03,59,9.80
2015,04,27,04,00,9.70
2015,04,27,04,01,9.80
2015,04,27,04,02,9.70
2015,04,27,04,03,9.80
2015,04,27,04,04,9.80
2015,04,27,04,05,9.80
2015,04,27,04,06,9.70
2015,04,27,04,07,9.80
2015,04,27,04,08,9.80
2015,04,27,04,09,9.80
2015,04,27,04,10,9.80
2015,04,27,04,11,9.80
2015,04,27,04,12,9.80
2015,04,27,04,13,9.80
2015,04,27,04,14,9.80
2015,04,27,04,15,9.80
2015,04,27,04,16,9.80
2015,04,27,04,17,9.80
2015,04,27,04,18,9.80
2015,04,27,04,19,9.80
2015,04,27,04,20,9.80
2015,04,27,04,21,9.80
2015,04,27,04,22,9.70
2015,04,27,04,23,9.80
2015,04,27,04,24,9.80
2015,04,27,04,25,9.80
2015,04,27,04,26,9.80
2015,04,27,04,27,9.80
2015,04,27,04,28,9.80
2015,04,27,04,29,9.80
2015,04,27,04,30,9.80
2015,04,27,04,31,9.80
2015,04,27,04,32,9.70
2015,04,27,04,33,9.70
2015,04,27,04,34,9.80
2015,04,27,04,35,9.80
2015,04,27,04,36,9.80
2015,04,27,04,37,9.80
2015,04,27,04,38,9.80
2015,04,27,04,39,9.80
2015,04,27,04,40,9.80
2015,04,27,04,41,9.80
2015,04,27,04,42,9.80
2015,04,27,04,43,9.80
2015,04,27,04,44,9.80
2015,04,27,04,45,9.80
2015,04,27,04,46,9.80
2015,04,27,04,47,9.80
2015,04,27,04,48,9.80
2015,04,27,04,49,9.80
2015,04,27,04,50,9.80
2015,04,27,04,51,9.80
2015,04,27,04,52,9.80
2015,04,27,04,53,9.80
2015,04,27,04,54,9.80
2015,04,27,04,55,9.80
2015,04,27,04,56,9.80
2015,04,27,04,57,9.80
2015,04,27,04,58,9.80
2015,04,27,04,59,9.80
2015,04,27,05,00,9.80
2015,04,27,05,01,9.80
2015,04,27,05,02,9.80
2015,04,27,05,03,9.80
2015,04,27,05,04,9.80
2015,04,27,05,05,9.80
2015,04,27,05,06,9.80
2015,04,27,05,07,9.70
2015,04,27,05,08,9.80
2015,04,27,05,09,9.80
2015,04,27,05,10,9.70
2015,04,27,05,11,9.80
2015,04,27,05,12,9.80
2015,04,27,05,13,9.70
2015,04,27,05,14,9.80
2015,04,27,05,15,9.70
2015,04,27,05,16,9.80
2015,04,27,05,17,9.80
2015,04,27,05,18,9.70
2015,04,27,05,19,9.70
2015,04,27,05,20,9.70
2015,04,27,05,21,9.70
2015,04,27,05,22,9.70
2015,04,27,05,23,9.70
2015,04,27,05,24,9.70
2015,04,27,05,25,9.70
2015,04,27,05,26,9.70
2015,04,27,05,27,9.70
2015,04,27,05,28,9.70
2015,04,27,05,29,9.70
2015,04,27,05,30,9.70
2015,04,27,05,31,9.70
2015,04,27,05,32,9.70
2015,04,27,05,33,9.70
2015,04,27,05,34,9.70
2015,04,27,05,35,9.70
2015,04,27,05,36,9.70
2015,04,27,05,37,9.70
2015,04,27,05,38,9.70
2015,04,27,05,39,9.70
2015,04,27,05,40,9.70
2015,04,27,05,41,9.70
2015,04,27,05,42,9.70
2015,04,27,05,43,9.70
2015,04,27,05,44,9.70
2015,04,27,05,45,9.60
2015,04,27,05,46,9.60
2015,04,27,05,47,9.60
2015,04,27,05,48,9.60
2015,04,27,05,49,9.60
2015,04,27,05,50,9.60
2015,04,27,05,51,9.60
2015,04,27,05,52,9.60
2015,04,27,05,53,9.60
2015,04,27,05,54,9.60
2015,04,27,05,55,9.60
2015,04,27,05,56,9.60
2015,04,27,05,57,9.60
2015,04,27,05,58,9.60
2015,04,27,05,59,9.60
2015,04,27,06,00,9.60
2015,04,27,06,01,9.60
2015,04,27,06,02,9.60
2015,04,27,06,03,9.60
2015,04,27,06,04,9.60
2015,04,27,06,05,9.50
2015,04,27,06,06,9.60
2015,04,27,06,07,9.60
2015,04,27,06,08,9.60
2015,04,27,06,09,9.50
2015,04,27,06,10,9.50
2015,04,27,06,11,9.50
2015,04,27,06,12,9.50
2015,04,27,06,13,9.50
2015,04,27,06,14,9.50
2015,04,27,06,15,9.40
2015,04,27,06,16,9.40
2015,04,27,06,17,9.40
2015,04,27,06,18,9.40
2015,04,27,06,19,9.40
2015,04,27,06,20,9.40
2015,04,27,06,21,9.40
2015,04,27,06,22,9.40
2015,04,27,06,23,9.40
2015,04,27,06,24,9.40
2015,04,27,06,25,9.40
2015,04,27,06,26,9.40
2015,04,27,06,27,9.40
2015,04,27,06,28,9.40
2015,04,27,06,29,9.40
2015,04,27,06,30,9.40
2015,04,27,06,31,9.40
2015,04,27,06,32,9.40
2015,04,27,06,33,9.40
2015,04,27,06,34,9.40
2015,04,27,06,35,9.40
2015,04,27,06,36,9.40
2015,04,27,06,37,9.40
2015,04,27,06,38,9.40
2015,04,27,06,39,9.40
2015,04,27,06,40,9.40
2015,04,27,06,41,9.40
2015,04,27,06,42,9.40
2015,04,27,06,43,9.40
2015,04,27,06,44,9.40
2015,04,27,06,45,9.40
2015,04,27,06,46,9.40
2015,04,27,06,47,9.40
2015,04,27,06,48,9.40
